GW4457 Weather Reports


Display with metric or nautical units.
time (UTC)temp
F
wind
direction
speed
MPH
gust
MPH
rain 1hr
in
rain 24hr
in
rain mn
in
humidity
%
barometer
mb
20260904064832 77 85 8.0 13.0 0.00 0.00 0.00 82 1019.3
20260904064328 77 76 8.0 13.0 0.00 0.00 0.00 83 1019.3
20260904063819 78 37 5.0 11.0 0.00 0.00 0.00 83 1019.4
20260904063314 78 72 8.0 13.0 0.00 0.00 0.00 82 1019.3
20260904062810 77 81 11.0 14.0 0.00 0.00 0.00 83 1019.4
20260904062306 77 65 8.0 14.0 0.00 0.00 0.00 84 1019.4
20260904061801 77 77 6.0 14.0 0.00 0.00 0.00 84 1019.6
20260904061257 78 80 9.0 13.0 0.00 0.00 0.00 85 1019.4
20260904060754 78 90 6.0 11.0 0.00 0.00 0.00 85 1019.5
20260904060249 78 78 7.0 10.0 0.00 0.00 0.00 85 1019.7
20260904055744 78 61 9.0 13.0 0.00 0.00 0.00 85 1019.8
20260904055244 78 87 9.0 11.0 0.00 0.00 0.00 85 1019.8
20260904054740 78 74 7.0 10.0 0.00 0.00 0.00 85 1019.7
20260904054236 78 102 10.0 16.0 0.00 0.00 0.00 85 1019.9
20260904053731 78 88 6.0 10.0 0.00 0.00 0.00 85 1019.9
20260904053230 78 87 9.0 10.0 0.00 0.00 0.00 85 1019.8
20260904052727 78 89 10.0 11.0 0.00 0.00 0.00 85 1020.1
20260904052222 78 106 7.0 13.0 0.00 0.00 0.00 86 1020.2
20260904051719 78 68 9.0 11.0 0.00 0.00 0.00 86 1020.2
20260904051214 78 348 6.0 8.0 0.00 0.00 0.00 86 1020.0
20260904050714 78 75 7.0 10.0 0.00 0.00 0.00 86 1020.1
20260904050211 78 54 6.0 8.0 0.00 0.00 0.00 87 1020.4
20260904045710 78 63 6.0 9.0 0.00 0.00 0.00 87 1020.3
20260904045205 78 80 6.0 9.0 0.00 0.00 0.00 87 1020.3
20260904044701 78 100 6.0 8.0 0.00 0.00 0.00 88 1020.5
20260904044157 78 74 5.0 7.0 0.00 0.00 0.00 88 1020.4
20260904043653 78 85 3.0 4.0 0.00 0.00 0.00 88 1020.4
20260904043148 78 82 4.0 7.0 0.00 0.00 0.00 89 1020.3
20260904042644 77 72 6.0 8.0 0.00 0.00 0.00 89 1020.5
20260904042140 78 100 4.0 4.0 0.00 0.00 0.00 89 1020.6
20260904041635 78 117 4.0 4.0 0.00 0.00 0.00 90 1020.8
20260904041131 78 349 3.0 4.0 0.00 0.00 0.00 90 1020.8
20260904040627 78 349 3.0 4.0 0.00 0.00 0.00 90 1020.7
20260904040123 78 86 3.0 4.0 0.00 0.00 0.00 90 1020.9
20260904035619 78 81 2.0 4.0 0.00 0.16 0.16 91 1020.8
20260904035118 78 84 2.0 4.0 0.00 0.16 0.16 91 1021.0
20260904034613 78 90 4.0 4.0 0.00 0.16 0.16 91 1021.0
20260904034108 78 112 3.0 4.0 0.00 0.16 0.16 91 1021.1
20260904033604 78 170 2.0 3.0 0.00 0.16 0.16 91 1020.9
20260904033101 0 0.0 0.0 0.00 0.00 0.00 1020.9
20260904032556 0 0.0 0.0 0.00 0.00 0.00 1020.9
20260904032055 0 0.0 0.0 0.00 0.00 0.00 1020.9
20260904031554 77 77 4.0 4.0 0.00 0.16 0.16 92 1021.0
20260904031051 77 77 4.0 4.0 0.00 0.16 0.16 92 1021.0
20260904030547 77 77 4.0 4.0 0.00 0.16 0.16 92 1020.9
20260904030042 77 77 4.0 4.0 0.00 0.16 0.16 92 1020.9
20260904025537 77 77 4.0 4.0 0.00 0.16 0.16 92 1020.9
20260904025032 77 77 4.0 4.0 0.00 0.16 0.16 92 1021.0
20260904024527 77 77 4.0 4.0 0.00 0.16 0.16 92 1020.9
20260904024023 77 77 4.0 4.0 0.00 0.16 0.16 92 1021.1
20260904023519 77 77 4.0 4.0 0.00 0.16 0.16 92 1020.8
20260904023015 77 77 4.0 4.0 0.00 0.16 0.16 92 1020.8
20260904022514 77 77 4.0 4.0 0.00 0.16 0.16 92 1020.7
20260904022012 77 77 4.0 4.0 0.00 0.16 0.16 92 1020.8
20260904021507 77 104 3.0 6.0 0.00 0.16 0.16 92 1020.6
20260904021002 77 84 4.0 4.0 0.00 0.16 0.16 93 1020.8
20260904020457 76 36 3.0 4.0 0.00 0.16 0.16 93 1020.8
20260904015955 76 26 3.0 4.0 0.00 0.16 0.16 93 1020.7
20260904015451 76 19 6.0 9.0 0.00 0.16 0.16 93 1020.6
20260904014949 76 11 6.0 8.0 0.00 0.16 0.16 93 1020.7
20260904014444 76 3 6.0 7.0 0.00 0.16 0.16 93 1020.7
20260904013940 76 3 6.0 7.0 0.00 0.16 0.16 93 1020.6
20260904013436 75 9 5.0 7.0 0.00 0.16 0.16 93 1020.6
20260904012933 75 29 5.0 9.0 0.00 0.16 0.16 93 1020.5
20260904012432 75 43 9.0 10.0 0.00 0.16 0.16 93 1020.5
20260904011927 76 0 8.0 10.0 0.00 0.16 0.16 92 1020.5
20260904011421 76 0 8.0 10.0 0.00 0.16 0.16 92 1020.5
20260904010917 76 39 7.0 10.0 0.00 0.16 0.16 92 1020.5
20260904010413 76 67 6.0 11.0 0.00 0.16 0.16 92 1020.2
20260904005908 76 46 6.0 9.0 0.00 0.16 0.16 92 1020.3
20260904005404 76 4 7.0 10.0 0.00 0.16 0.16 92 1020.4
20260904004858 76 45 7.0 10.0 0.00 0.16 0.16 92 1020.2
20260904004355 76 35 7.0 9.0 0.00 0.16 0.16 92 1020.1
20260904003855 76 20 6.0 8.0 0.00 0.16 0.16 92 1020.2
20260904003351 76 24 5.0 8.0 0.00 0.16 0.16 92 1020.3
20260904002845 76 37 6.0 8.0 0.00 0.16 0.16 92 1020.2
20260904002342 76 5 7.0 8.0 0.00 0.16 0.16 91 1020.1
20260904001841 76 354 7.0 11.0 0.00 0.16 0.16 91 1020.2
20260904001337 76 12 8.0 10.0 0.00 0.16 0.16 91 1020.0
20260904000832 76 30 5.0 8.0 0.07 0.16 0.16 91 1020.0
20260904000333 76 350 5.0 7.0 0.07 0.16 0.16 90 1019.9
20260903235831 77 28 6.0 8.0 0.00 0.15 0.15 88 1020.1
20260903235327 77 28 6.0 8.0 0.05 0.15 0.15 88 1020.2
20260903234826 77 28 6.0 8.0 0.05 0.15 0.15 88 1020.0
20260903234323 78 53 9.0 10.0 0.00 0.14 0.14 88 1020.1
20260903233819 78 45 5.0 9.0 0.00 0.14 0.14 87 1020.0
20260903233314 78 12 4.0 7.0 0.00 0.14 0.14 87 1019.8
20260903232813 78 6 6.0 7.0 0.00 0.14 0.14 86 1019.7
20260903232309 78 347 5.0 7.0 0.00 0.14 0.14 87 1019.8
20260903231808 78 350 5.0 6.0 0.00 0.14 0.14 87 1019.7
20260903231304 78 351 6.0 7.0 0.00 0.14 0.14 87 1019.6
20260903230800 78 341 6.0 7.0 0.00 0.14 0.14 87 1019.7
20260903230300 78 321 5.0 6.0 0.00 0.14 0.14 87 1019.7
20260903225756 78 308 5.0 6.0 0.00 0.14 0.14 86 1019.6
20260903225252 78 309 5.0 6.0 0.00 0.14 0.14 86 1019.5
20260903224748 78 352 5.0 7.0 0.07 0.14 0.14 86 1019.7
20260903224244 78 322 4.0 4.0 0.07 0.14 0.14 86 1019.5
20260903223739 79 315 4.0 4.0 0.00 0.13 0.13 85 1019.9
20260903223237 79 331 4.0 6.0 0.05 0.13 0.13 84 1019.7
20260903222733 79 338 4.0 4.0 0.59 0.13 0.13 83 1019.6
20260903222232 79 311 7.0 8.0 0.59 0.11 0.11 82 1019.8
20260903221727 80 276 2.0 4.0 0.19 0.03 0.03 81 1019.6
20260903221225 80 355 3.0 4.0 0.00 0.00 0.00 80 1019.6
20260903220724 81 300 4.0 6.0 0.00 0.00 0.00 80 1019.6
20260903220219 82 256 0.0 3.0 0.00 0.00 0.00 79 1019.4
20260903215718 82 167 3.0 4.0 0.00 0.00 0.00 78 1019.3
20260903215213 83 235 2.0 4.0 0.00 0.00 0.00 77 1019.3
20260903214711 83 57 2.0 4.0 0.00 0.00 0.00 76 1019.5
20260903214208 83 109 5.0 7.0 0.00 0.00 0.00 76 1019.5
20260903213702 83 104 3.0 4.0 0.00 0.00 0.00 76 1019.3
20260903213158 83 140 3.0 6.0 0.00 0.00 0.00 76 1019.4
20260903212654 83 111 4.0 7.0 0.00 0.00 0.00 76 1019.3
20260903212150 83 141 4.0 9.0 0.00 0.00 0.00 75 1019.5
20260903211643 83 95 3.0 9.0 0.00 0.00 0.00 75 1019.4
20260903211140 83 92 6.0 9.0 0.00 0.00 0.00 75 1019.4
20260903210636 83 115 7.0 9.0 0.00 0.00 0.00 75 1019.6
20260903210131 83 126 8.0 11.0 0.00 0.00 0.00 75 1019.3
20260903205630 83 129 4.0 8.0 0.00 0.00 0.00 75 1019.1
20260903205125 83 169 4.0 9.0 0.00 0.00 0.00 76 1019.3
20260903204620 83 129 9.0 10.0 0.00 0.00 0.00 75 1019.3
20260903204115 83 190 4.0 10.0 0.00 0.00 0.00 75 1019.4
20260903203611 83 172 7.0 11.0 0.00 0.00 0.00 76 1019.2
20260903203106 83 126 8.0 9.0 0.00 0.00 0.00 75 1019.2
20260903202601 83 113 5.0 9.0 0.00 0.00 0.00 76 1019.3
20260903202056 83 140 6.0 9.0 0.00 0.00 0.00 75 1019.3
20260903201551 83 201 6.0 9.0 0.00 0.00 0.00 75 1019.2
20260903201050 84 112 9.0 13.0 0.00 0.00 0.00 75 1019.2
20260903200540 84 106 8.0 10.0 0.00 0.00 0.00 74 1019.4
20260903200035 84 102 6.0 10.0 0.00 0.00 0.00 73 1019.5
20260903195530 84 112 4.0 11.0 0.00 0.00 0.00 73 1019.5
20260903195026 84 120 4.0 11.0 0.00 0.00 0.00 74 1019.3
20260903194521 84 99 8.0 14.0 0.00 0.00 0.00 73 1019.3
20260903194016 84 74 5.0 11.0 0.00 0.00 0.00 72 1019.1
20260903193512 84 103 5.0 11.0 0.00 0.00 0.00 71 1019.3
20260903193007 85 119 8.0 15.0 0.00 0.00 0.00 69 1019.1
20260903192504 86 73 10.0 18.0 0.00 0.00 0.00 65 1019.2
20260903191959 87 96 9.0 13.0 0.00 0.00 0.00 64 1019.3
20260903191455 87 109 7.0 15.0 0.00 0.00 0.00 64 1019.3
20260903190954 89 158 7.0 13.0 0.00 0.00 0.00 60 1019.3
20260903190449 89 138 9.0 14.0 0.00 0.00 0.00 57 1019.4
20260903185948 88 168 6.0 9.0 0.00 0.00 0.00 60 1019.3
20260903185444 88 130 10.0 13.0 0.00 0.00 0.00 60 1019.4
20260903184939 88 94 10.0 14.0 0.00 0.00 0.00 60 1019.7
20260903184436 88 137 16.0 18.0 0.00 0.00 0.00 59 1019.4
20260903183935 88 104 9.0 16.0 0.00 0.00 0.00 64 1019.4
20260903183430 88 244 6.0 14.0 0.00 0.00 0.00 65 1019.4
20260903182929 89 88 7.0 11.0 0.00 0.00 0.00 61 1019.8
20260903182428 88 159 10.0 16.0 0.00 0.00 0.00 60 1019.8
20260903181924 87 115 9.0 14.0 0.00 0.00 0.00 64 1019.6
20260903181413 86 93 11.0 16.0 0.00 0.00 0.00 68 1019.6
20260903180912 86 128 10.0 15.0 0.00 0.00 0.00 70 1019.6
20260903180407 87 125 11.0 13.0 0.00 0.00 0.00 67 1019.7
20260903175907 90 116 10.0 13.0 0.00 0.00 0.00 61 1019.7
20260903175406 89 135 8.0 14.0 0.00 0.00 0.00 64 1019.6
20260903174901 89 165 9.0 11.0 0.00 0.00 0.00 64 1019.7
20260903174356 88 111 10.0 16.0 0.00 0.00 0.00 64 1019.7
20260903173850 89 103 11.0 15.0 0.00 0.00 0.00 64 1019.6
20260903173346 90 59 8.0 17.0 0.00 0.00 0.00 63 1019.7
20260903172842 90 111 11.0 16.0 0.00 0.00 0.00 61 1019.7
20260903172336 91 67 14.0 17.0 0.00 0.00 0.00 59 1019.7
20260903171832 90 125 11.0 19.0 0.00 0.00 0.00 59 1019.9
20260903171327 89 169 10.0 16.0 0.00 0.00 0.00 62 1019.9
20260903170826 88 92 12.0 16.0 0.00 0.00 0.00 63 1019.8
20260903170322 89 165 8.0 16.0 0.00 0.00 0.00 64 1019.9
20260903165819 89 125 10.0 16.0 0.00 0.00 0.00 61 1020.1
20260903165314 89 113 10.0 17.0 0.00 0.00 0.00 63 1019.8
20260903164814 90 131 12.0 16.0 0.00 0.00 0.00 63 1019.9
20260903164310 90 126 10.0 13.0 0.00 0.00 0.00 64 1020.0
20260903163808 89 115 9.0 14.0 0.00 0.00 0.00 66 1020.1
20260903163306 89 190 11.0 15.0 0.00 0.00 0.00 67 1020.3
20260903162801 90 151 9.0 15.0 0.00 0.00 0.00 64 1020.3
20260903162257 89 101 15.0 17.0 0.00 0.00 0.00 62 1020.5
20260903161753 91 123 8.0 16.0 0.00 0.00 0.00 64 1020.5
20260903161248 90 161 8.0 14.0 0.00 0.00 0.00 62 1020.5
20260903160744 89 167 11.0 17.0 0.00 0.00 0.00 62 1020.5
20260903160242 89 105 11.0 16.0 0.00 0.00 0.00 64 1020.3
20260903155741 89 167 9.0 16.0 0.00 0.00 0.00 64 1020.5
20260903155236 90 121 12.0 15.0 0.00 0.00 0.00 61 1020.4
20260903154732 90 154 10.0 15.0 0.00 0.00 0.00 63 1020.7
20260903154228 90 127 11.0 15.0 0.00 0.00 0.00 60 1020.7
20260903153723 89 114 13.0 16.0 0.00 0.00 0.00 62 1020.6
20260903153219 89 135 12.0 16.0 0.00 0.00 0.00 60 1020.7
20260903152715 89 173 11.0 16.0 0.00 0.00 0.00 64 1020.7
20260903152211 89 132 11.0 14.0 0.00 0.00 0.00 65 1020.8
20260903151711 89 125 14.0 18.0 0.00 0.00 0.00 64 1021.2
20260903151206 89 91 11.0 17.0 0.00 0.00 0.00 63 1020.9
20260903150701 90 70 10.0 15.0 0.00 0.00 0.00 61 1020.9
20260903150156 89 106 15.0 21.0 0.00 0.00 0.00 62 1021.2
20260903145655 90 174 15.0 21.0 0.00 0.00 0.00 60 1021.0
20260903145150 89 103 8.0 23.0 0.00 0.00 0.00 64 1021.0
20260903144649 89 74 10.0 19.0 0.00 0.00 0.00 64 1021.0
20260903144145 89 116 10.0 19.0 0.00 0.00 0.00 62 1021.0
20260903143641 89 72 12.0 17.0 0.00 0.00 0.00 61 1021.1
20260903143137 90 119 11.0 19.0 0.00 0.00 0.00 62 1021.0
20260903142632 89 173 9.0 15.0 0.00 0.00 0.00 60 1021.1
20260903142129 89 117 11.0 14.0 0.00 0.00 0.00 63 1021.0
20260903141624 90 124 10.0 17.0 0.00 0.00 0.00 60 1021.0
20260903141119 90 89 9.0 14.0 0.00 0.00 0.00 61 1021.1
20260903140615 89 116 7.0 14.0 0.00 0.00 0.00 62 1020.9
20260903140110 89 89 13.0 15.0 0.00 0.00 0.00 60 1021.0
20260903135606 89 107 10.0 13.0 0.00 0.00 0.00 62 1021.1
20260903135101 89 79 14.0 18.0 0.00 0.00 0.00 60 1020.9
20260903134559 88 99 11.0 18.0 0.00 0.00 0.00 62 1021.0
20260903134056 88 143 11.0 13.0 0.00 0.00 0.00 63 1021.0
20260903133553 88 186 5.0 8.0 0.00 0.00 0.00 64 1021.0
20260903133049 88 106 11.0 17.0 0.00 0.00 0.00 62 1020.8
20260903132544 89 145 9.0 15.0 0.00 0.00 0.00 62 1020.9
20260903132039 89 78 7.0 13.0 0.00 0.00 0.00 62 1020.9
20260903131538 87 99 11.0 13.0 0.00 0.00 0.00 63 1020.8
20260903131037 88 105 13.0 14.0 0.00 0.00 0.00 64 1020.8
20260903130533 88 91 9.0 13.0 0.00 0.00 0.00 63 1020.8
20260903130032 87 120 8.0 13.0 0.00 0.00 0.00 65 1020.7
20260903125531 87 147 10.0 14.0 0.00 0.00 0.00 64 1020.7
20260903125026 88 264 11.0 15.0 0.00 0.00 0.00 62 1020.7
20260903124521 88 135 5.0 13.0 0.00 0.00 0.00 63 1020.8
20260903124020 86 146 5.0 11.0 0.00 0.00 0.00 65 1020.6
20260903123515 86 122 8.0 11.0 0.00 0.00 0.00 64 1020.6
20260903123013 86 86 5.0 8.0 0.00 0.00 0.00 65 1020.5
20260903122508 87 78 9.0 11.0 0.00 0.00 0.00 63 1020.6
20260903122008 87 60 7.0 10.0 0.00 0.00 0.00 64 1020.4
20260903121503 86 87 8.0 10.0 0.00 0.00 0.00 64 1020.6
20260903120958 86 87 4.0 9.0 0.00 0.00 0.00 65 1020.4
20260903120456 85 101 7.0 9.0 0.00 0.00 0.00 65 1020.4
20260903115956 85 64 8.0 9.0 0.00 0.00 0.00 66 1020.5
20260903115455 85 86 5.0 7.0 0.00 0.00 0.00 67 1020.4
20260903114955 84 76 9.0 10.0 0.00 0.00 0.00 68 1020.4
20260903114451 84 95 8.0 9.0 0.00 0.00 0.00 69 1020.4
20260903113946 84 52 7.0 9.0 0.00 0.00 0.00 70 1020.1
20260903113443 84 67 4.0 7.0 0.00 0.00 0.00 70 1020.1
20260903112938 83 57 6.0 9.0 0.00 0.00 0.00 70 1020.2
20260903112434 83 88 5.0 8.0 0.00 0.00 0.00 72 1020.2
20260903111933 82 85 6.0 9.0 0.00 0.00 0.00 73 1020.2
20260903111433 82 80 8.0 8.0 0.00 0.00 0.00 73 1020.2
20260903110929 82 82 4.0 8.0 0.00 0.00 0.00 74 1020.2
20260903110425 82 141 6.0 7.0 0.00 0.00 0.00 74 1020.3
20260903105919 81 82 7.0 9.0 0.00 0.00 0.00 75 1020.3
20260903105415 81 75 3.0 3.0 0.00 0.00 0.00 75 1020.3
20260903104914 80 88 4.0 8.0 0.00 0.00 0.00 76 1020.3
20260903104408 80 76 8.0 9.0 0.00 0.00 0.00 76 1020.3
20260903103906 80 57 6.0 7.0 0.00 0.00 0.00 77 1020.1
20260903103401 80 96 4.0 7.0 0.00 0.00 0.00 77 1020.0
20260903102856 79 86 3.0 7.0 0.00 0.00 0.00 78 1019.7
20260903102351 79 89 4.0 8.0 0.00 0.00 0.00 78 1019.9
20260903101850 79 47 3.0 8.0 0.00 0.00 0.00 78 1019.7
20260903101345 79 65 5.0 7.0 0.00 0.00 0.00 78 1019.6
20260903100841 79 67 5.0 8.0 0.00 0.00 0.00 79 1019.7
20260903100341 79 86 6.0 8.0 0.00 0.00 0.00 79 1019.6
20260903095832 79 62 3.0 8.0 0.00 0.00 0.00 79 1019.5
20260903095332 79 119 6.0 7.0 0.00 0.00 0.00 79 1019.6
20260903094827 79 76 4.0 7.0 0.00 0.00 0.00 78 1019.4
20260903094322 79 57 6.0 9.0 0.00 0.00 0.00 78 1019.4
20260903093818 79 106 5.0 10.0 0.00 0.00 0.00 78 1019.4
20260903093314 79 108 6.0 8.0 0.00 0.00 0.00 78 1019.4
20260903092814 79 74 5.0 9.0 0.00 0.00 0.00 78 1019.4
20260903092308 79 62 5.0 8.0 0.00 0.00 0.00 77 1019.4
20260903091807 79 76 5.0 8.0 0.00 0.00 0.00 77 1019.5
20260903091301 79 96 6.0 7.0 0.00 0.00 0.00 77 1019.3
20260903090757 79 100 7.0 8.0 0.00 0.00 0.00 77 1019.2
20260903090256 79 90 4.0 8.0 0.00 0.00 0.00 77 1019.3
20260903085755 79 57 5.0 10.0 0.00 0.00 0.00 77 1019.4
20260903085250 79 90 5.0 8.0 0.00 0.00 0.00 77 1019.3
20260903084748 79 72 4.0 8.0 0.00 0.00 0.00 77 1019.4
20260903084243 79 72 5.0 9.0 0.00 0.00 0.00 77 1019.3
20260903083738 79 92 9.0 9.0 0.00 0.00 0.00 78 1019.4
20260903083238 79 66 4.0 8.0 0.00 0.00 0.00 77 1019.2
20260903082737 79 88 7.0 9.0 0.00 0.00 0.00 78 1019.4
20260903082234 79 75 6.0 9.0 0.00 0.00 0.00 78 1019.4
20260903081734 79 24 6.0 7.0 0.00 0.00 0.00 78 1019.4
20260903081229 79 62 5.0 7.0 0.00 0.00 0.00 78 1019.3
20260903080725 79 64 5.0 8.0 0.00 0.00 0.00 78 1019.4
20260903080223 79 62 5.0 9.0 0.00 0.00 0.00 77 1019.3
20260903075722 79 55 5.0 7.0 0.00 0.00 0.00 78 1019.2
20260903075217 79 160 2.0 7.0 0.00 0.00 0.00 77 1019.2
20260903074716 79 69 4.0 7.0 0.00 0.00 0.00 77 1019.1
20260903074212 79 72 4.0 9.0 0.00 0.00 0.00 77 1019.3
20260903073707 79 89 4.0 7.0 0.00 0.00 0.00 76 1019.2
20260903073202 79 26 6.0 9.0 0.00 0.00 0.00 76 1019.2
20260903072658 79 50 5.0 8.0 0.00 0.00 0.00 77 1019.2
20260903072154 79 8 4.0 7.0 0.00 0.00 0.00 76 1019.3
20260903071650 79 33 4.0 10.0 0.00 0.00 0.00 77 1019.4
20260903071145 79 88 6.0 7.0 0.00 0.00 0.00 77 1019.3
20260903070640 79 70 6.0 9.0 0.00 0.00 0.00 77 1019.1
20260903070136 79 96 4.0 9.0 0.00 0.00 0.00 77 1019.3
20260903065635 79 72 6.0 8.0 0.00 0.00 0.00 78 1019.4